Time,TemperatureF,DewpointF,PressureIn,WindDirection,WindDirectionDegrees,WindSpeedMPH,WindSpeedGustMPH,Humidity,HourlyPrecipIn,Conditions,Clouds,dailyrainin,SolarRadiationWatts/m^2,SoftwareType,DateUTC
2013-05-03 00:00:00,53.4,51.4,30.26,NE,52,0.0,1.0,93,0.00,,---,0.00,0.00,VWS V14.01,2013-05-03 04:00:00,
2013-05-03 00:01:00,53.3,51.3,30.27,NE,52,0.0,1.0,93,0.00,,---,0.00,0.00,VWS V14.01,2013-05-03 04:01:00,
2013-05-03 00:06:00,53.2,51.2,30.27,ENE,59,0.0,1.0,93,0.00,,---,0.00,0.00,VWS V14.01,2013-05-03 04:06:00,
2013-05-03 00:11:00,53.1,51.1,30.26,ENE,59,0.0,1.0,93,0.00,,---,0.00,0.00,VWS V14.01,2013-05-03 04:11:00,
2013-05-03 00:16:00,53.0,51.0,30.26,ENE,59,0.0,1.0,93,0.00,,---,0.00,0.00,VWS V14.01,2013-05-03 04:16:00,
2013-05-03 00:21:00,52.9,50.9,30.26,ENE,59,0.0,1.0,93,0.00,,---,0.00,0.00,VWS V14.01,2013-05-03 04:21:00,
2013-05-03 00:26:00,52.8,50.8,30.26,ENE,59,0.0,1.0,93,0.00,,---,0.00,0.00,VWS V14.01,2013-05-03 04:26:00,
2013-05-03 00:31:00,52.7,50.7,30.26,ENE,59,0.0,1.0,93,0.00,,---,0.00,0.00,VWS V14.01,2013-05-03 04:31:00,
2013-05-03 00:36:00,52.6,50.6,30.26,ENE,59,0.0,0.0,93,0.00,,---,0.00,0.00,VWS V14.01,2013-05-03 04:36:00,
2013-05-03 00:41:00,52.4,50.4,30.25,ENE,59,0.0,0.0,93,0.00,,---,0.00,0.00,VWS V14.01,2013-05-03 04:41:00,
2013-05-03 00:46:00,52.3,50.3,30.25,ENE,59,0.0,0.0,93,0.00,,---,0.00,0.00,VWS V14.01,2013-05-03 04:46:00,
2013-05-03 00:51:00,52.2,50.2,30.25,ENE,59,0.0,0.0,93,0.00,,---,0.00,0.00,VWS V14.01,2013-05-03 04:51:00,
2013-05-03 00:56:00,52.1,50.1,30.25,ENE,59,0.0,0.0,93,0.00,,---,0.00,0.00,VWS V14.01,2013-05-03 04:56:00,
2013-05-03 01:01:00,51.9,49.9,30.25,ENE,59,0.0,0.0,93,0.00,,---,0.00,0.00,VWS V14.01,2013-05-03 05:01:00,
2013-05-03 01:06:00,51.8,49.8,30.25,ENE,59,0.0,0.0,93,0.00,,---,0.00,0.00,VWS V14.01,2013-05-03 05:06:00,
2013-05-03 01:11:00,51.7,49.8,30.25,ENE,59,0.0,0.0,93,0.00,,---,0.00,0.00,VWS V14.01,2013-05-03 05:11:00,
2013-05-03 01:16:00,51.5,49.5,30.25,ENE,59,0.0,0.0,93,0.00,,---,0.00,0.00,VWS V14.01,2013-05-03 05:16:00,
2013-05-03 01:21:00,51.4,49.5,30.25,ENE,59,0.0,0.0,93,0.00,,---,0.00,0.00,VWS V14.01,2013-05-03 05:21:00,
2013-05-03 01:26:00,51.3,49.3,30.25,ENE,59,0.0,0.0,93,0.00,,---,0.00,0.00,VWS V14.01,2013-05-03 05:26:00,
2013-05-03 01:31:00,51.2,49.2,30.25,ENE,59,0.0,0.0,93,0.00,,---,0.00,0.00,VWS V14.01,2013-05-03 05:31:00,
2013-05-03 01:36:00,51.0,49.0,30.25,ENE,59,0.0,0.0,93,0.00,,---,0.00,0.00,VWS V14.01,2013-05-03 05:36:00,
2013-05-03 01:41:00,50.9,49.0,30.24,ENE,59,0.0,0.0,93,0.00,,---,0.00,0.00,VWS V14.01,2013-05-03 05:41:00,
2013-05-03 01:46:00,50.7,48.8,30.24,ENE,59,0.0,0.0,93,0.00,,---,0.00,0.00,VWS V14.01,2013-05-03 05:46:00,
2013-05-03 01:51:00,50.6,48.7,30.24,ENE,59,0.0,0.0,93,0.00,,---,0.00,0.00,VWS V14.01,2013-05-03 05:51:00,
2013-05-03 01:56:00,50.5,48.6,30.24,ENE,59,0.0,0.0,93,0.00,,---,0.00,0.00,VWS V14.01,2013-05-03 05:56:00,
2013-05-03 02:01:00,50.3,48.4,30.24,ENE,59,0.0,0.0,93,0.00,,---,0.00,0.00,VWS V14.01,2013-05-03 06:01:00,
2013-05-03 02:06:00,50.2,48.3,30.24,ENE,59,0.0,0.0,93,0.00,,---,0.00,0.00,VWS V14.01,2013-05-03 06:06:00,
2013-05-03 02:11:00,50.1,48.2,30.24,ENE,59,0.0,0.0,93,0.00,,---,0.00,0.00,VWS V14.01,2013-05-03 06:11:00,
2013-05-03 02:16:00,49.9,48.0,30.24,ENE,59,0.0,0.0,93,0.00,,---,0.00,0.00,VWS V14.01,2013-05-03 06:16:00,
2013-05-03 02:21:00,49.9,48.0,30.24,ENE,59,0.0,0.0,93,0.00,,---,0.00,0.00,VWS V14.01,2013-05-03 06:21:00,
2013-05-03 02:26:00,49.8,47.9,30.24,ENE,59,0.0,0.0,93,0.00,,---,0.00,0.00,VWS V14.01,2013-05-03 06:26:00,
2013-05-03 02:31:00,49.7,47.8,30.23,ENE,59,0.0,0.0,93,0.00,,---,0.00,0.00,VWS V14.01,2013-05-03 06:31:00,
2013-05-03 02:36:00,49.6,47.7,30.24,ENE,59,0.0,0.0,93,0.00,,---,0.00,0.00,VWS V14.01,2013-05-03 06:36:00,
2013-05-03 02:41:00,49.5,47.8,30.23,ENE,59,0.0,0.0,94,0.00,,---,0.00,0.00,VWS V14.01,2013-05-03 06:41:00,
2013-05-03 02:46:00,49.4,47.5,30.23,ENE,59,0.0,0.0,93,0.00,,---,0.00,0.00,VWS V14.01,2013-05-03 06:46:00,
2013-05-03 02:51:00,49.3,47.4,30.23,ENE,59,0.0,0.0,93,0.00,,---,0.00,0.00,VWS V14.01,2013-05-03 06:51:00,
2013-05-03 02:56:00,49.2,47.5,30.23,ENE,59,0.0,0.0,94,0.00,,---,0.00,0.00,VWS V14.01,2013-05-03 06:56:00,
2013-05-03 03:01:00,49.1,47.5,30.23,ENE,59,0.0,0.0,94,0.00,,---,0.00,0.00,VWS V14.01,2013-05-03 07:01:00,
2013-05-03 03:06:00,49.0,47.3,30.23,ENE,59,0.0,0.0,94,0.00,,---,0.00,0.00,VWS V14.01,2013-05-03 07:06:00,
2013-05-03 03:11:00,48.9,47.2,30.23,ENE,59,0.0,0.0,94,0.00,,---,0.00,0.00,VWS V14.01,2013-05-03 07:11:00,
2013-05-03 03:16:00,48.9,47.2,30.23,ENE,59,0.0,0.0,94,0.00,,---,0.00,0.00,VWS V14.01,2013-05-03 07:16:00,
2013-05-03 03:21:00,48.8,47.2,30.23,ENE,59,0.0,0.0,94,0.00,,---,0.00,0.00,VWS V14.01,2013-05-03 07:21:00,
2013-05-03 03:26:00,48.7,47.0,30.22,ENE,59,0.0,0.0,94,0.00,,---,0.00,0.00,VWS V14.01,2013-05-03 07:26:00,
2013-05-03 03:31:00,48.7,47.0,30.22,ENE,59,0.0,0.0,94,0.00,,---,0.00,0.00,VWS V14.01,2013-05-03 07:31:00,
2013-05-03 03:36:00,48.7,47.0,30.22,ENE,59,0.0,0.0,94,0.00,,---,0.00,0.00,VWS V14.01,2013-05-03 07:36:00,
2013-05-03 03:41:00,48.7,47.3,30.22,ENE,59,0.0,0.0,95,0.00,,---,0.00,0.00,VWS V14.01,2013-05-03 07:41:00,
2013-05-03 03:46:00,48.7,47.3,30.22,ENE,59,0.0,0.0,95,0.00,,---,0.00,0.00,VWS V14.01,2013-05-03 07:46:00,
2013-05-03 03:51:00,48.7,47.3,30.22,ENE,59,0.0,0.0,95,0.00,,---,0.00,0.00,VWS V14.01,2013-05-03 07:51:00,
2013-05-03 03:56:00,48.7,47.3,30.22,ENE,59,0.0,0.0,95,0.00,,---,0.00,0.00,VWS V14.01,2013-05-03 07:56:00,
2013-05-03 04:01:00,48.8,47.4,30.22,ENE,59,0.0,0.0,95,0.00,,---,0.00,0.00,VWS V14.01,2013-05-03 08:01:00,
2013-05-03 04:06:00,48.8,47.4,30.22,ENE,59,0.0,0.0,95,0.00,,---,0.00,0.00,VWS V14.01,2013-05-03 08:06:00,
2013-05-03 04:11:00,48.7,47.3,30.22,ENE,59,0.0,0.0,95,0.00,,---,0.00,0.00,VWS V14.01,2013-05-03 08:11:00,
2013-05-03 04:16:00,48.8,47.4,30.22,ENE,59,0.0,0.0,95,0.00,,---,0.00,0.00,VWS V14.01,2013-05-03 08:16:00,
2013-05-03 04:21:00,48.7,47.3,30.22,ENE,59,0.0,0.0,95,0.00,,---,0.00,0.00,VWS V14.01,2013-05-03 08:21:00,
2013-05-03 04:26:00,48.6,47.2,30.22,ENE,59,0.0,0.0,95,0.00,,---,0.00,0.00,VWS V14.01,2013-05-03 08:26:00,
2013-05-03 04:31:00,48.6,47.2,30.22,ENE,59,0.0,0.0,95,0.00,,---,0.00,0.00,VWS V14.01,2013-05-03 08:31:00,
2013-05-03 04:36:00,48.5,47.1,30.22,ENE,59,0.0,0.0,95,0.00,,---,0.00,0.00,VWS V14.01,2013-05-03 08:36:00,
2013-05-03 04:41:00,48.4,47.0,30.22,ENE,59,0.0,0.0,95,0.00,,---,0.00,0.00,VWS V14.01,2013-05-03 08:41:00,
2013-05-03 04:46:00,48.3,46.9,30.22,ENE,59,0.0,0.0,95,0.00,,---,0.00,0.00,VWS V14.01,2013-05-03 08:46:00,
2013-05-03 04:51:00,48.3,46.9,30.22,ENE,59,0.0,0.0,95,0.00,,---,0.00,0.00,VWS V14.01,2013-05-03 08:51:00,
2013-05-03 04:56:00,48.3,46.9,30.22,ENE,59,0.0,0.0,95,0.00,,---,0.00,0.00,VWS V14.01,2013-05-03 08:56:00,
2013-05-03 05:01:00,48.3,46.9,30.22,ENE,59,0.0,1.0,95,0.00,,---,0.00,0.00,VWS V14.01,2013-05-03 09:01:00,
2013-05-03 05:06:00,48.3,46.9,30.22,ENE,59,0.0,0.0,95,0.00,,---,0.00,0.00,VWS V14.01,2013-05-03 09:06:00,
2013-05-03 05:11:00,48.3,46.9,30.22,ENE,59,0.0,0.0,95,0.00,,---,0.00,0.00,VWS V14.01,2013-05-03 09:11:00,
2013-05-03 05:16:00,48.3,46.9,30.22,ENE,59,0.0,0.0,95,0.00,,---,0.00,0.00,VWS V14.01,2013-05-03 09:16:00,
2013-05-03 05:21:00,48.4,47.0,30.22,ENE,59,0.0,0.0,95,0.00,,---,0.00,0.00,VWS V14.01,2013-05-03 09:21:00,
2013-05-03 05:26:00,48.3,46.9,30.22,ENE,59,0.0,0.0,95,0.00,,---,0.00,0.00,VWS V14.01,2013-05-03 09:26:00,
2013-05-03 05:31:00,48.3,46.9,30.23,ENE,58,0.0,1.0,95,0.00,,---,0.00,0.00,VWS V14.01,2013-05-03 09:31:00,
2013-05-03 05:36:00,48.3,47.2,30.22,ENE,58,0.0,1.0,96,0.00,,---,0.00,0.00,VWS V14.01,2013-05-03 09:36:00,
2013-05-03 05:41:00,48.3,46.9,30.23,ENE,58,0.0,1.0,95,0.00,,---,0.00,0.00,VWS V14.01,2013-05-03 09:41:00,
2013-05-03 05:46:00,48.3,47.2,30.23,ENE,58,0.0,1.0,96,0.00,,---,0.00,0.00,VWS V14.01,2013-05-03 09:46:00,
2013-05-03 05:51:00,48.3,46.9,30.23,ENE,58,0.0,1.0,95,0.00,,---,0.00,0.00,VWS V14.01,2013-05-03 09:51:00,
2013-05-03 05:56:00,48.3,46.9,30.23,ENE,58,0.0,1.0,95,0.00,,---,0.00,0.00,VWS V14.01,2013-05-03 09:56:00,
2013-05-03 06:01:00,48.3,46.9,30.23,ENE,58,0.0,1.0,95,0.00,,---,0.00,0.00,VWS V14.01,2013-05-03 10:01:00,
2013-05-03 06:06:00,48.2,46.8,30.23,ENE,58,0.0,0.0,95,0.00,,---,0.00,0.00,VWS V14.01,2013-05-03 10:06:00,
2013-05-03 06:11:00,48.2,46.8,30.23,ENE,58,0.0,1.0,95,0.01,,---,0.01,0.00,VWS V14.01,2013-05-03 10:11:00,
2013-05-03 06:16:00,48.1,46.7,30.24,ENE,58,0.0,1.0,95,0.01,,---,0.01,0.00,VWS V14.01,2013-05-03 10:16:00,
2013-05-03 06:20:00,48.1,46.7,30.23,ENE,58,0.0,1.0,95,0.01,,---,0.01,0.00,VWS V14.01,2013-05-03 10:20:00,
2013-05-03 06:25:00,48.1,46.7,30.23,ENE,58,0.0,1.0,95,0.01,,---,0.01,5.00,VWS V14.01,2013-05-03 10:25:00,
2013-05-03 06:30:00,48.1,46.7,30.24,ENE,58,0.0,1.0,95,0.01,,---,0.01,9.00,VWS V14.01,2013-05-03 10:30:00,
2013-05-03 06:35:00,48.0,46.6,30.24,ENE,58,0.0,0.0,95,0.01,,---,0.01,14.00,VWS V14.01,2013-05-03 10:35:00,
2013-05-03 06:40:00,48.0,46.9,30.24,ENE,58,0.0,1.0,96,0.01,,---,0.01,19.00,VWS V14.01,2013-05-03 10:40:00,
2013-05-03 06:45:00,48.1,47.0,30.24,East,84,0.0,2.0,96,0.01,,---,0.01,25.00,VWS V14.01,2013-05-03 10:45:00,
2013-05-03 06:50:00,48.1,47.0,30.24,East,84,0.0,2.0,96,0.01,,---,0.01,30.00,VWS V14.01,2013-05-03 10:50:00,
2013-05-03 06:55:00,48.2,47.1,30.24,East,84,0.0,2.0,96,0.01,,---,0.01,35.00,VWS V14.01,2013-05-03 10:55:00,
2013-05-03 07:00:00,48.2,47.1,30.24,East,84,0.0,2.0,96,0.01,,---,0.01,40.00,VWS V14.01,2013-05-03 11:00:00,
2013-05-03 07:05:00,48.2,47.1,30.24,East,84,0.0,1.0,96,0.01,,---,0.01,46.00,VWS V14.01,2013-05-03 11:05:00,
2013-05-03 07:10:00,48.3,47.2,30.25,East,84,0.0,1.0,96,0.01,,---,0.01,51.00,VWS V14.01,2013-05-03 11:10:00,
2013-05-03 07:15:00,48.4,47.3,30.25,East,84,0.0,2.0,96,0.01,,---,0.01,56.00,VWS V14.01,2013-05-03 11:15:00,
2013-05-03 07:20:00,48.5,47.4,30.25,NE,52,0.0,3.0,96,0.01,,---,0.01,62.00,VWS V14.01,2013-05-03 11:20:00,
2013-05-03 07:25:00,48.7,47.6,30.25,NNE,33,0.0,3.0,96,0.01,,---,0.01,67.00,VWS V14.01,2013-05-03 11:25:00,
2013-05-03 07:30:00,48.8,47.7,30.25,North,5,0.0,4.0,96,0.01,,---,0.01,74.00,VWS V14.01,2013-05-03 11:30:00,
2013-05-03 07:35:00,49.0,47.9,30.25,ESE,117,0.0,2.0,96,0.00,,---,0.01,79.00,VWS V14.01,2013-05-03 11:35:00,
2013-05-03 07:40:00,49.2,48.1,30.25,ESE,117,0.0,2.0,96,0.00,,---,0.01,88.00,VWS V14.01,2013-05-03 11:40:00,
2013-05-03 07:45:00,49.4,48.6,30.25,ESE,121,0.0,3.0,97,0.00,,---,0.01,93.00,VWS V14.01,2013-05-03 11:45:00,
2013-05-03 07:50:00,49.6,48.8,30.25,ENE,68,0.0,4.0,97,0.00,,---,0.01,95.00,VWS V14.01,2013-05-03 11:50:00,
2013-05-03 07:55:00,49.8,48.7,30.26,East,100,2.0,4.0,96,0.00,,---,0.01,118.00,VWS V14.01,2013-05-03 11:55:00,
2013-05-03 08:00:00,50.1,49.3,30.25,ESE,109,1.0,4.0,97,0.00,,---,0.01,146.00,VWS V14.01,2013-05-03 12:00:00,
2013-05-03 08:05:00,50.3,49.2,30.26,East,100,1.0,1.0,96,0.00,,---,0.01,163.00,VWS V14.01,2013-05-03 12:05:00,
2013-05-03 08:10:00,50.6,49.8,30.26,East,90,1.0,4.0,97,0.00,,---,0.01,246.00,VWS V14.01,2013-05-03 12:10:00,
2013-05-03 08:15:00,51.0,49.9,30.26,ESE,106,1.0,4.0,96,0.00,,---,0.01,287.00,VWS V14.01,2013-05-03 12:15:00,
2013-05-03 08:20:00,51.5,50.7,30.26,South,180,1.0,4.0,97,0.00,,---,0.01,309.00,VWS V14.01,2013-05-03 12:20:00,
2013-05-03 08:25:00,52.0,51.2,30.26,NNE,33,0.0,4.0,97,0.00,,---,0.01,315.00,VWS V14.01,2013-05-03 12:25:00,
2013-05-03 08:30:00,52.6,51.5,30.26,NE,55,0.0,5.0,96,0.00,,---,0.01,318.00,VWS V14.01,2013-05-03 12:30:00,
2013-05-03 08:35:00,53.2,51.8,30.26,East,96,0.0,5.0,95,0.00,,---,0.01,367.00,VWS V14.01,2013-05-03 12:35:00,
2013-05-03 08:40:00,53.8,52.4,30.26,ENE,67,2.0,6.0,95,0.00,,---,0.01,397.00,VWS V14.01,2013-05-03 12:40:00,
2013-05-03 08:45:00,54.4,52.4,30.26,South,186,1.0,6.0,93,0.00,,---,0.01,411.00,VWS V14.01,2013-05-03 12:45:00,
2013-05-03 08:50:00,55.0,52.4,30.26,East,92,1.0,6.0,91,0.00,,---,0.01,434.00,VWS V14.01,2013-05-03 12:50:00,
2013-05-03 08:55:00,55.7,52.8,30.26,ESE,104,7.0,8.0,90,0.00,,---,0.01,459.00,VWS V14.01,2013-05-03 12:55:00,
2013-05-03 09:00:00,56.1,52.6,30.26,NE,54,1.0,8.0,88,0.00,,---,0.01,469.00,VWS V14.01,2013-05-03 13:00:00,
2013-05-03 09:05:00,56.6,52.5,30.26,ENE,75,2.0,6.0,86,0.00,,---,0.01,489.00,VWS V14.01,2013-05-03 13:05:00,
2013-05-03 09:10:00,57.0,52.9,30.26,ESE,111,0.0,6.0,86,0.00,,---,0.01,434.00,VWS V14.01,2013-05-03 13:10:00,
2013-05-03 09:15:00,57.6,53.5,30.26,East,82,0.0,6.0,86,0.00,,---,0.01,283.00,VWS V14.01,2013-05-03 13:15:00,
2013-05-03 09:20:00,58.0,53.5,30.26,East,81,2.0,7.0,85,0.00,,---,0.01,332.00,VWS V14.01,2013-05-03 13:20:00,
2013-05-03 09:25:00,58.2,53.4,30.26,ESE,118,0.0,7.0,84,0.00,,---,0.01,236.00,VWS V14.01,2013-05-03 13:25:00,
2013-05-03 09:30:00,58.2,53.1,30.26,East,79,1.0,8.0,83,0.00,,---,0.01,236.00,VWS V14.01,2013-05-03 13:30:00,
2013-05-03 09:35:00,58.2,53.4,30.26,NE,48,1.0,4.0,84,0.00,,---,0.01,267.00,VWS V14.01,2013-05-03 13:35:00,
2013-05-03 09:40:00,58.2,53.4,30.26,East,87,6.0,8.0,84,0.00,,---,0.01,278.00,VWS V14.01,2013-05-03 13:40:00,
2013-05-03 09:45:00,58.1,53.3,30.26,ESE,103,0.0,8.0,84,0.00,,---,0.01,246.00,VWS V14.01,2013-05-03 13:45:00,
2013-05-03 09:50:00,58.2,53.4,30.26,North,350,4.0,8.0,84,0.00,,---,0.01,306.00,VWS V14.01,2013-05-03 13:50:00,
2013-05-03 09:55:00,58.7,54.2,30.26,North,360,0.0,8.0,85,0.00,,---,0.01,374.00,VWS V14.01,2013-05-03 13:55:00,
2013-05-03 10:00:00,59.7,55.2,30.26,NNW,336,1.0,8.0,85,0.00,,---,0.01,707.00,VWS V14.01,2013-05-03 14:00:00,
2013-05-03 10:05:00,60.2,54.7,30.26,NNE,33,13.0,13.0,82,0.00,,---,0.01,371.00,VWS V14.01,2013-05-03 14:05:00,
2013-05-03 10:10:00,60.3,54.8,30.26,West,278,2.0,13.0,82,0.00,,---,0.01,387.00,VWS V14.01,2013-05-03 14:10:00,
2013-05-03 10:15:00,60.5,54.7,30.26,NE,51,4.0,13.0,81,0.00,,---,0.01,394.00,VWS V14.01,2013-05-03 14:15:00,
2013-05-03 10:20:00,60.5,54.3,30.26,NNW,331,1.0,13.0,80,0.00,,---,0.01,454.00,VWS V14.01,2013-05-03 14:20:00,
2013-05-03 10:25:00,60.7,54.5,30.26,ESE,123,4.0,13.0,80,0.00,,---,0.01,299.00,VWS V14.01,2013-05-03 14:25:00,
2013-05-03 10:30:00,60.4,54.2,30.27,NE,53,5.0,13.0,80,0.00,,---,0.01,445.00,VWS V14.01,2013-05-03 14:30:00,
2013-05-03 10:35:00,60.3,54.1,30.27,North,5,1.0,7.0,80,0.00,,---,0.01,269.00,VWS V14.01,2013-05-03 14:35:00,
2013-05-03 10:40:00,60.1,54.3,30.27,ENE,73,5.0,7.0,81,0.00,,---,0.01,234.00,VWS V14.01,2013-05-03 14:40:00,
2013-05-03 10:45:00,60.0,54.2,30.27,East,95,1.0,7.0,81,0.00,,---,0.01,185.00,VWS V14.01,2013-05-03 14:45:00,
2013-05-03 10:50:00,59.7,53.9,30.27,ENE,77,5.0,11.0,81,0.00,,---,0.01,253.00,VWS V14.01,2013-05-03 14:50:00,
2013-05-03 10:55:00,59.5,54.0,30.27,ENE,67,1.0,11.0,82,0.00,,---,0.01,306.00,VWS V14.01,2013-05-03 14:55:00,
2013-05-03 11:00:00,59.6,54.1,30.27,ENE,59,0.0,11.0,82,0.00,,---,0.01,378.00,VWS V14.01,2013-05-03 15:00:00,
2013-05-03 11:05:00,59.6,54.1,30.27,ESE,107,8.0,8.0,82,0.00,,---,0.01,341.00,VWS V14.01,2013-05-03 15:05:00,
2013-05-03 11:10:00,59.6,54.1,30.27,North,9,2.0,8.0,82,0.00,,---,0.01,373.00,VWS V14.01,2013-05-03 15:10:00,
2013-05-03 11:15:00,59.7,53.9,30.27,ESE,107,3.0,8.0,81,0.00,,---,0.01,341.00,VWS V14.01,2013-05-03 15:15:00,
2013-05-03 11:20:00,59.9,54.4,30.27,ENE,57,2.0,8.0,82,0.00,,---,0.01,308.00,VWS V14.01,2013-05-03 15:20:00,
2013-05-03 11:25:00,60.0,54.2,30.27,East,82,0.0,8.0,81,0.00,,---,0.01,362.00,VWS V14.01,2013-05-03 15:25:00,
2013-05-03 11:30:00,60.1,54.6,30.27,East,94,2.0,8.0,82,0.00,,---,0.01,243.00,VWS V14.01,2013-05-03 15:30:00,
2013-05-03 11:35:00,60.2,54.4,30.27,East,101,1.0,7.0,81,0.00,,---,0.01,374.00,VWS V14.01,2013-05-03 15:35:00,
2013-05-03 11:40:00,60.5,55.0,30.27,ESE,119,4.0,7.0,82,0.00,,---,0.01,364.00,VWS V14.01,2013-05-03 15:40:00,
2013-05-03 11:45:00,61.2,55.3,30.27,East,82,2.0,7.0,81,0.00,,---,0.01,499.00,VWS V14.01,2013-05-03 15:45:00,
2013-05-03 11:50:00,61.5,54.9,30.27,East,96,2.0,8.0,79,0.00,,---,0.01,601.00,VWS V14.01,2013-05-03 15:50:00,
2013-05-03 11:55:00,61.6,55.0,30.27,North,5,5.0,10.0,79,0.00,,---,0.01,341.00,VWS V14.01,2013-05-03 15:55:00,
2013-05-03 12:00:00,61.7,55.1,30.27,NNE,14,1.0,10.0,79,0.00,,---,0.01,362.00,VWS V14.01,2013-05-03 16:00:00,
2013-05-03 12:05:00,62.0,55.4,30.26,ESE,111,1.0,7.0,79,0.00,,---,0.01,404.00,VWS V14.01,2013-05-03 16:05:00,
2013-05-03 12:10:00,62.4,55.5,30.26,ENE,69,2.0,7.0,78,0.00,,---,0.01,485.00,VWS V14.01,2013-05-03 16:10:00,
2013-05-03 12:15:00,62.9,55.2,30.26,East,81,2.0,8.0,76,0.00,,---,0.01,930.00,VWS V14.01,2013-05-03 16:15:00,
2013-05-03 12:20:00,63.4,56.1,30.26,NE,42,2.0,10.0,77,0.00,,---,0.01,494.00,VWS V14.01,2013-05-03 16:20:00,
2013-05-03 12:25:00,63.4,55.0,30.26,ESE,105,0.0,10.0,74,0.00,,---,0.01,452.00,VWS V14.01,2013-05-03 16:25:00,
2013-05-03 12:30:00,63.5,55.4,30.26,SE,141,5.0,10.0,75,0.00,,---,0.01,452.00,VWS V14.01,2013-05-03 16:30:00,
2013-05-03 12:35:00,64.3,55.8,30.26,NE,39,5.0,7.0,74,0.00,,---,0.01,315.00,VWS V14.01,2013-05-03 16:35:00,
2013-05-03 12:40:00,64.4,55.9,30.25,NNW,347,1.0,7.0,74,0.00,,---,0.01,343.00,VWS V14.01,2013-05-03 16:40:00,
2013-05-03 12:45:00,64.6,55.4,30.25,East,98,1.0,8.0,72,0.00,,---,0.01,594.00,VWS V14.01,2013-05-03 16:45:00,
2013-05-03 12:50:00,64.9,56.0,30.25,WNW,302,1.0,8.0,73,0.00,,---,0.01,1007.00,VWS V14.01,2013-05-03 16:50:00,
2013-05-03 12:55:00,64.8,55.6,30.25,East,92,7.0,10.0,72,0.00,,---,0.01,378.00,VWS V14.01,2013-05-03 16:55:00,
2013-05-03 13:00:00,65.0,55.8,30.24,SSE,157,0.0,10.0,72,0.00,,---,0.01,404.00,VWS V14.01,2013-05-03 17:00:00,
2013-05-03 13:05:00,65.7,57.2,30.24,East,101,0.0,8.0,74,0.00,,---,0.01,1092.00,VWS V14.01,2013-05-03 17:05:00,
2013-05-03 13:10:00,66.7,56.6,30.24,NNE,22,2.0,8.0,70,0.00,,---,0.01,366.00,VWS V14.01,2013-05-03 17:10:00,
2013-05-03 13:15:00,66.6,55.7,30.24,East,85,1.0,8.0,68,0.00,,---,0.01,279.00,VWS V14.01,2013-05-03 17:15:00,
2013-05-03 13:20:00,66.0,55.5,30.24,ESE,107,1.0,8.0,69,0.00,,---,0.01,399.00,VWS V14.01,2013-05-03 17:20:00,
2013-05-03 13:25:00,65.8,54.5,30.24,ENE,76,3.0,8.0,67,0.00,,---,0.01,353.00,VWS V14.01,2013-05-03 17:25:00,
2013-05-03 13:30:00,66.0,54.7,30.24,North,10,1.0,8.0,67,0.00,,---,0.01,882.00,VWS V14.01,2013-05-03 17:30:00,
2013-05-03 13:35:00,66.8,55.5,30.23,East,92,5.0,8.0,67,0.00,,---,0.01,912.00,VWS V14.01,2013-05-03 17:35:00,
2013-05-03 13:40:00,67.0,55.7,30.23,ESE,117,2.0,8.0,67,0.00,,---,0.01,353.00,VWS V14.01,2013-05-03 17:40:00,
2013-05-03 13:45:00,66.7,55.0,30.23,ENE,78,4.0,8.0,66,0.00,,---,0.01,981.00,VWS V14.01,2013-05-03 17:45:00,
2013-05-03 13:50:00,67.0,56.1,30.22,NE,44,2.0,8.0,68,0.00,,---,0.01,392.00,VWS V14.01,2013-05-03 17:50:00,
2013-05-03 13:55:00,67.3,54.7,30.22,East,90,2.0,10.0,64,0.00,,---,0.01,302.00,VWS V14.01,2013-05-03 17:55:00,
2013-05-03 14:00:00,66.9,55.2,30.22,SSE,150,1.0,10.0,66,0.00,,---,0.01,274.00,VWS V14.01,2013-05-03 18:00:00,
2013-05-03 14:05:00,67.2,55.0,30.22,NNE,22,6.0,10.0,65,0.00,,---,0.01,696.00,VWS V14.01,2013-05-03 18:05:00,
2013-05-03 14:10:00,67.2,55.9,30.22,ENE,69,1.0,10.0,67,0.00,,---,0.01,323.00,VWS V14.01,2013-05-03 18:10:00,
2013-05-03 14:15:00,66.9,55.6,30.22,East,82,2.0,10.0,67,0.00,,---,0.01,496.00,VWS V14.01,2013-05-03 18:15:00,
2013-05-03 14:20:00,67.1,55.4,30.22,ENE,65,1.0,10.0,66,0.00,,---,0.01,299.00,VWS V14.01,2013-05-03 18:20:00,
2013-05-03 14:25:00,67.4,55.7,30.22,SSW,206,0.0,10.0,66,0.00,,---,0.01,392.00,VWS V14.01,2013-05-03 18:25:00,
2013-05-03 14:30:00,67.6,55.8,30.21,East,91,5.0,10.0,66,0.00,,---,0.01,394.00,VWS V14.01,2013-05-03 18:30:00,
2013-05-03 14:35:00,67.7,56.0,30.21,ENE,64,1.0,9.0,66,0.00,,---,0.01,496.00,VWS V14.01,2013-05-03 18:35:00,
2013-05-03 14:40:00,67.7,54.7,30.21,ENE,60,2.0,9.0,63,0.00,,---,0.01,390.00,VWS V14.01,2013-05-03 18:40:00,
2013-05-03 14:45:00,67.6,55.4,30.21,ENE,66,1.0,9.0,65,0.00,,---,0.01,213.00,VWS V14.01,2013-05-03 18:45:00,
2013-05-03 14:50:00,67.5,55.3,30.20,ESE,120,1.0,9.0,65,0.00,,---,0.01,229.00,VWS V14.01,2013-05-03 18:50:00,
2013-05-03 14:55:00,67.5,56.2,30.20,ESE,107,1.0,9.0,67,0.00,,---,0.01,378.00,VWS V14.01,2013-05-03 18:55:00,
2013-05-03 15:00:00,67.5,55.8,30.20,East,96,3.0,9.0,66,0.00,,---,0.01,265.00,VWS V14.01,2013-05-03 19:00:00,
2013-05-03 15:05:00,67.5,55.3,30.20,ENE,67,2.0,6.0,65,0.00,,---,0.01,455.00,VWS V14.01,2013-05-03 19:05:00,
2013-05-03 15:10:00,67.8,55.6,30.20,NE,42,2.0,6.0,65,0.00,,---,0.01,397.00,VWS V14.01,2013-05-03 19:10:00,
2013-05-03 15:15:00,67.9,55.7,30.20,NNE,30,2.0,8.0,65,0.00,,---,0.01,244.00,VWS V14.01,2013-05-03 19:15:00,
2013-05-03 15:20:00,67.8,54.8,30.19,NE,40,0.0,8.0,63,0.00,,---,0.01,220.00,VWS V14.01,2013-05-03 19:20:00,
2013-05-03 15:25:00,67.7,55.1,30.19,North,11,2.0,8.0,64,0.00,,---,0.01,227.00,VWS V14.01,2013-05-03 19:25:00,
2013-05-03 15:30:00,67.7,54.7,30.19,North,5,5.0,10.0,63,0.00,,---,0.01,701.00,VWS V14.01,2013-05-03 19:30:00,
2013-05-03 15:35:00,67.8,55.2,30.19,NE,54,2.0,7.0,64,0.00,,---,0.01,269.00,VWS V14.01,2013-05-03 19:35:00,
2013-05-03 15:40:00,67.7,54.7,30.19,East,86,5.0,8.0,63,0.00,,---,0.01,151.00,VWS V14.01,2013-05-03 19:40:00,
2013-05-03 15:45:00,67.6,55.8,30.19,NE,34,1.0,8.0,66,0.00,,---,0.01,281.00,VWS V14.01,2013-05-03 19:45:00,
2013-05-03 15:50:00,67.5,55.3,30.18,NNW,346,0.0,8.0,65,0.00,,---,0.01,508.00,VWS V14.01,2013-05-03 19:50:00,
2013-05-03 15:55:00,67.9,56.5,30.18,ENE,69,2.0,8.0,67,0.00,,---,0.01,608.00,VWS V14.01,2013-05-03 19:55:00,
2013-05-03 16:00:00,68.3,55.2,30.18,NNE,12,6.0,8.0,63,0.00,,---,0.01,598.00,VWS V14.01,2013-05-03 20:00:00,
2013-05-03 16:05:00,68.5,55.9,30.17,SE,130,2.0,5.0,64,0.00,,---,0.01,186.00,VWS V14.01,2013-05-03 20:05:00,
2013-05-03 16:10:00,68.4,55.3,30.17,East,79,2.0,8.0,63,0.00,,---,0.01,237.00,VWS V14.01,2013-05-03 20:10:00,
2013-05-03 16:15:00,68.3,55.2,30.17,ENE,71,1.0,8.0,63,0.00,,---,0.01,497.00,VWS V14.01,2013-05-03 20:15:00,
2013-05-03 16:20:00,68.6,56.4,30.17,East,94,1.0,8.0,65,0.00,,---,0.01,533.00,VWS V14.01,2013-05-03 20:20:00,
2013-05-03 16:25:00,68.8,56.1,30.17,East,79,0.0,8.0,64,0.00,,---,0.01,278.00,VWS V14.01,2013-05-03 20:25:00,
2013-05-03 16:30:00,68.8,55.3,30.17,ESE,102,3.0,8.0,62,0.00,,---,0.01,585.00,VWS V14.01,2013-05-03 20:30:00,
2013-05-03 16:35:00,69.1,56.0,30.17,NE,49,0.0,3.0,63,0.00,,---,0.01,171.00,VWS V14.01,2013-05-03 20:35:00,
2013-05-03 16:40:00,69.3,55.3,30.17,NNE,28,6.0,7.0,61,0.00,,---,0.01,232.00,VWS V14.01,2013-05-03 20:40:00,
2013-05-03 16:45:00,69.0,55.0,30.17,East,84,4.0,9.0,61,0.00,,---,0.01,250.00,VWS V14.01,2013-05-03 20:45:00,
2013-05-03 16:50:00,68.9,54.5,30.17,West,275,1.0,9.0,60,0.00,,---,0.01,234.00,VWS V14.01,2013-05-03 20:50:00,
2013-05-03 16:54:00,68.9,54.5,30.17,East,83,1.0,9.0,60,0.00,,---,0.01,185.00,VWS V14.01,2013-05-03 20:54:00,
2013-05-03 16:59:00,68.6,53.7,30.17,East,83,1.0,9.0,59,0.00,,---,0.01,265.00,VWS V14.01,2013-05-03 20:59:00,
2013-05-03 17:04:00,68.4,52.6,30.17,NNE,30,2.0,5.0,57,0.00,,---,0.01,334.00,VWS V14.01,2013-05-03 21:04:00,
2013-05-03 17:09:00,68.4,50.6,30.17,ESE,106,5.0,7.0,53,0.00,,---,0.01,267.00,VWS V14.01,2013-05-03 21:09:00,
2013-05-03 17:14:00,68.2,48.9,30.17,NE,53,7.0,10.0,50,0.00,,---,0.01,253.00,VWS V14.01,2013-05-03 21:14:00,
2013-05-03 17:19:00,67.9,47.5,30.17,ENE,66,0.0,10.0,48,0.00,,---,0.01,255.00,VWS V14.01,2013-05-03 21:19:00,
2013-05-03 17:24:00,67.6,47.8,30.17,East,93,2.0,10.0,49,0.00,,---,0.01,244.00,VWS V14.01,2013-05-03 21:24:00,
2013-05-03 17:29:00,67.5,47.7,30.17,North,5,5.0,10.0,49,0.00,,---,0.01,223.00,VWS V14.01,2013-05-03 21:29:00,
2013-05-03 17:34:00,67.4,47.6,30.17,NNE,20,3.0,5.0,49,0.00,,---,0.01,209.00,VWS V14.01,2013-05-03 21:34:00,
2013-05-03 17:39:00,67.2,48.0,30.17,ENE,70,1.0,7.0,50,0.00,,---,0.01,200.00,VWS V14.01,2013-05-03 21:39:00,
2013-05-03 17:44:00,67.1,47.9,30.17,East,96,5.0,8.0,50,0.00,,---,0.01,193.00,VWS V14.01,2013-05-03 21:44:00,
2013-05-03 17:49:00,66.8,46.5,30.18,NW,322,1.0,9.0,48,0.00,,---,0.01,188.00,VWS V14.01,2013-05-03 21:49:00,
2013-05-03 17:54:00,66.7,45.3,30.18,NNE,32,0.0,9.0,46,0.00,,---,0.01,181.00,VWS V14.01,2013-05-03 21:54:00,
2013-05-03 17:59:00,66.5,45.7,30.17,East,97,2.0,9.0,47,0.00,,---,0.01,169.00,VWS V14.01,2013-05-03 21:59:00,
2013-05-03 18:04:00,66.4,47.7,30.17,SE,139,2.0,2.0,51,0.00,,---,0.01,158.00,VWS V14.01,2013-05-03 22:04:00,
2013-05-03 18:09:00,66.2,45.4,30.17,North,360,3.0,7.0,47,0.00,,---,0.01,149.00,VWS V14.01,2013-05-03 22:09:00,
2013-05-03 18:14:00,66.0,46.3,30.17,East,90,1.0,7.0,49,0.00,,---,0.01,142.00,VWS V14.01,2013-05-03 22:14:00,
2013-05-03 18:19:00,65.9,47.3,30.17,East,85,2.0,7.0,51,0.00,,---,0.01,132.00,VWS V14.01,2013-05-03 22:19:00,
2013-05-03 18:24:00,65.7,46.6,30.17,NE,53,2.0,7.0,50,0.00,,---,0.01,123.00,VWS V14.01,2013-05-03 22:24:00,
2013-05-03 18:29:00,65.5,45.8,30.17,ENE,75,3.0,10.0,49,0.00,,---,0.01,114.00,VWS V14.01,2013-05-03 22:29:00,
2013-05-03 18:34:00,65.3,46.7,30.17,East,79,1.0,5.0,51,0.00,,---,0.01,107.00,VWS V14.01,2013-05-03 22:34:00,
2013-05-03 18:39:00,64.9,45.3,30.17,North,5,5.0,8.0,49,0.00,,---,0.01,100.00,VWS V14.01,2013-05-03 22:39:00,
2013-05-03 18:44:00,64.7,44.0,30.18,East,99,5.0,8.0,47,0.00,,---,0.01,91.00,VWS V14.01,2013-05-03 22:44:00,
2013-05-03 18:49:00,64.3,43.1,30.18,East,88,1.0,10.0,46,0.00,,---,0.01,83.00,VWS V14.01,2013-05-03 22:49:00,
2013-05-03 18:54:00,64.0,43.4,30.18,North,360,1.0,10.0,47,0.00,,---,0.01,77.00,VWS V14.01,2013-05-03 22:54:00,
2013-05-03 18:59:00,63.8,43.2,30.18,NE,54,5.0,10.0,47,0.00,,---,0.01,72.00,VWS V14.01,2013-05-03 22:59:00,
2013-05-03 19:04:00,63.4,42.3,30.18,ESE,108,4.0,6.0,46,0.00,,---,0.01,67.00,VWS V14.01,2013-05-03 23:04:00,
2013-05-03 19:09:00,63.1,42.6,30.18,ESE,116,0.0,6.0,47,0.00,,---,0.01,60.00,VWS V14.01,2013-05-03 23:09:00,
2013-05-03 19:14:00,62.9,42.9,30.18,NE,36,1.0,6.0,48,0.00,,---,0.01,53.00,VWS V14.01,2013-05-03 23:14:00,
2013-05-03 19:19:00,62.7,42.8,30.18,ESE,111,5.0,6.0,48,0.00,,---,0.01,42.00,VWS V14.01,2013-05-03 23:19:00,
2013-05-03 19:24:00,62.5,42.6,30.19,North,9,0.0,6.0,48,0.00,,---,0.01,33.00,VWS V14.01,2013-05-03 23:24:00,
2013-05-03 19:29:00,62.1,42.7,30.19,NE,56,7.0,7.0,49,0.00,,---,0.01,26.00,VWS V14.01,2013-05-03 23:29:00,
2013-05-03 19:34:00,61.8,43.0,30.19,NE,50,2.0,5.0,50,0.00,,---,0.01,21.00,VWS V14.01,2013-05-03 23:34:00,
2013-05-03 19:39:00,61.5,42.7,30.19,East,90,5.0,10.0,50,0.00,,---,0.01,18.00,VWS V14.01,2013-05-03 23:39:00,
2013-05-03 19:44:00,61.1,42.8,30.19,East,89,5.0,10.0,51,0.00,,---,0.01,12.00,VWS V14.01,2013-05-03 23:44:00,
2013-05-03 19:49:00,60.9,43.2,30.20,NNE,30,3.0,10.0,52,0.00,,---,0.01,9.00,VWS V14.01,2013-05-03 23:49:00,
2013-05-03 19:54:00,60.6,42.9,30.20,ESE,115,1.0,10.0,52,0.00,,---,0.01,5.00,VWS V14.01,2013-05-03 23:54:00,
2013-05-03 19:59:00,60.3,43.1,30.20,ENE,59,4.0,10.0,53,0.00,,---,0.01,0.00,VWS V14.01,2013-05-03 23:59:00,
2013-05-03 20:04:00,60.1,43.4,30.20,East,90,5.0,7.0,54,0.00,,---,0.01,0.00,VWS V14.01,2013-05-04 00:04:00,
2013-05-03 20:09:00,59.8,43.6,30.20,East,82,6.0,7.0,55,0.00,,---,0.01,0.00,VWS V14.01,2013-05-04 00:09:00,
2013-05-03 20:14:00,59.5,43.3,30.20,ENE,69,4.0,8.0,55,0.00,,---,0.01,0.00,VWS V14.01,2013-05-04 00:14:00,
2013-05-03 20:19:00,59.3,44.1,30.21,NE,44,6.0,8.0,57,0.00,,---,0.01,0.00,VWS V14.01,2013-05-04 00:19:00,
2013-05-03 20:24:00,59.1,43.9,30.21,ENE,77,4.0,8.0,57,0.00,,---,0.01,0.00,VWS V14.01,2013-05-04 00:24:00,
2013-05-03 20:29:00,58.9,43.7,30.21,SSW,192,0.0,8.0,57,0.00,,---,0.01,0.00,VWS V14.01,2013-05-04 00:29:00,
2013-05-03 20:34:00,58.7,44.4,30.21,East,90,2.0,6.0,59,0.00,,---,0.01,0.00,VWS V14.01,2013-05-04 00:34:00,
2013-05-03 20:39:00,58.4,44.6,30.21,ENE,71,5.0,8.0,60,0.00,,---,0.01,0.00,VWS V14.01,2013-05-04 00:39:00,
2013-05-03 20:44:00,58.2,44.8,30.21,East,99,3.0,8.0,61,0.00,,---,0.01,0.00,VWS V14.01,2013-05-04 00:44:00,
2013-05-03 20:49:00,58.0,45.1,30.21,East,98,4.0,9.0,62,0.00,,---,0.01,0.00,VWS V14.01,2013-05-04 00:49:00,
2013-05-03 20:54:00,57.8,45.3,30.22,South,182,2.0,9.0,63,0.00,,---,0.01,0.00,VWS V14.01,2013-05-04 00:54:00,
2013-05-03 20:59:00,57.6,45.5,30.22,East,86,2.0,9.0,64,0.00,,---,0.01,0.00,VWS V14.01,2013-05-04 00:59:00,
2013-05-03 21:04:00,57.4,45.3,30.22,East,94,6.0,6.0,64,0.00,,---,0.01,0.00,VWS V14.01,2013-05-04 01:04:00,
2013-05-03 21:09:00,57.1,45.5,30.22,South,182,4.0,9.0,65,0.00,,---,0.01,0.00,VWS V14.01,2013-05-04 01:09:00,
2013-05-03 21:14:00,56.9,45.7,30.22,ESE,113,1.0,9.0,66,0.00,,---,0.01,0.00,VWS V14.01,2013-05-04 01:14:00,
2013-05-03 21:19:00,56.7,45.5,30.23,NNW,331,1.0,10.0,66,0.00,,---,0.01,0.00,VWS V14.01,2013-05-04 01:19:00,
2013-05-03 21:24:00,56.4,45.2,30.23,ENE,74,3.0,11.0,66,0.00,,---,0.01,0.00,VWS V14.01,2013-05-04 01:24:00,
2013-05-03 21:29:00,56.2,45.4,30.23,ENE,78,0.0,11.0,67,0.00,,---,0.01,0.00,VWS V14.01,2013-05-04 01:29:00,
2013-05-03 21:34:00,56.0,45.6,30.23,NNE,27,0.0,6.0,68,0.00,,---,0.01,0.00,VWS V14.01,2013-05-04 01:34:00,
2013-05-03 21:39:00,55.8,45.4,30.23,North,360,5.0,8.0,68,0.00,,---,0.01,0.00,VWS V14.01,2013-05-04 01:39:00,
2013-05-03 21:44:00,55.6,45.2,30.23,ESE,108,1.0,8.0,68,0.00,,---,0.01,0.00,VWS V14.01,2013-05-04 01:44:00,
2013-05-03 21:49:00,55.4,45.0,30.23,East,83,0.0,8.0,68,0.00,,---,0.01,0.00,VWS V14.01,2013-05-04 01:49:00,
2013-05-03 21:54:00,55.2,44.8,30.24,ENE,69,2.0,8.0,68,0.00,,---,0.01,0.00,VWS V14.01,2013-05-04 01:54:00,
2013-05-03 21:59:00,55.0,45.0,30.24,East,94,0.0,8.0,69,0.00,,---,0.01,0.00,VWS V14.01,2013-05-04 01:59:00,
2013-05-03 22:04:00,54.9,44.9,30.24,North,355,0.0,5.0,69,0.00,,---,0.01,0.00,VWS V14.01,2013-05-04 02:04:00,
2013-05-03 22:09:00,54.7,45.1,30.23,East,84,0.0,5.0,70,0.00,,---,0.01,0.00,VWS V14.01,2013-05-04 02:09:00,
2013-05-03 22:14:00,54.6,45.0,30.24,NNE,33,4.0,7.0,70,0.00,,---,0.01,0.00,VWS V14.01,2013-05-04 02:14:00,
2013-05-03 22:19:00,54.4,45.2,30.23,East,87,1.0,7.0,71,0.00,,---,0.01,0.00,VWS V14.01,2013-05-04 02:19:00,
2013-05-03 22:24:00,54.2,45.0,30.23,East,95,1.0,9.0,71,0.00,,---,0.01,0.00,VWS V14.01,2013-05-04 02:24:00,
2013-05-03 22:29:00,54.1,45.3,30.23,ENE,58,2.0,11.0,72,0.00,,---,0.01,0.00,VWS V14.01,2013-05-04 02:29:00,
2013-05-03 22:34:00,54.0,45.2,30.23,ESE,105,1.0,6.0,72,0.00,,---,0.01,0.00,VWS V14.01,2013-05-04 02:34:00,
2013-05-03 22:39:00,53.8,45.0,30.23,NNE,33,0.0,6.0,72,0.00,,---,0.01,0.00,VWS V14.01,2013-05-04 02:39:00,
2013-05-03 22:44:00,53.7,44.9,30.23,NNW,344,0.0,7.0,72,0.00,,---,0.01,0.00,VWS V14.01,2013-05-04 02:44:00,
2013-05-03 22:49:00,53.5,45.1,30.23,ENE,64,2.0,7.0,73,0.00,,---,0.01,0.00,VWS V14.01,2013-05-04 02:49:00,
2013-05-03 22:54:00,53.3,44.9,30.23,NE,54,0.0,7.0,73,0.00,,---,0.01,0.00,VWS V14.01,2013-05-04 02:54:00,
2013-05-03 22:59:00,53.2,45.1,30.23,NE,34,4.0,7.0,74,0.00,,---,0.01,0.00,VWS V14.01,2013-05-04 02:59:00,
2013-05-03 23:04:00,53.1,45.0,30.23,East,88,3.0,3.0,74,0.00,,---,0.01,0.00,VWS V14.01,2013-05-04 03:04:00,
2013-05-03 23:09:00,52.9,45.2,30.23,East,96,0.0,8.0,75,0.00,,---,0.01,0.00,VWS V14.01,2013-05-04 03:09:00,
2013-05-03 23:14:00,52.8,45.1,30.22,East,96,0.0,8.0,75,0.00,,---,0.01,0.00,VWS V14.01,2013-05-04 03:14:00,
2013-05-03 23:19:00,52.7,45.4,30.22,ENE,59,1.0,8.0,76,0.00,,---,0.01,0.00,VWS V14.01,2013-05-04 03:19:00,
2013-05-03 23:24:00,52.5,45.2,30.22,NE,53,0.0,8.0,76,0.00,,---,0.01,0.00,VWS V14.01,2013-05-04 03:24:00,
2013-05-03 23:29:00,52.4,45.1,30.22,ESE,110,0.0,8.0,76,0.00,,---,0.01,0.00,VWS V14.01,2013-05-04 03:29:00,
2013-05-03 23:34:00,52.3,45.3,30.22,ENE,61,0.0,4.0,77,0.00,,---,0.01,0.00,VWS V14.01,2013-05-04 03:34:00,
2013-05-03 23:39:00,52.1,45.1,30.22,ENE,67,0.0,6.0,77,0.00,,---,0.01,0.00,VWS V14.01,2013-05-04 03:39:00,
2013-05-03 23:44:00,52.0,45.0,30.22,ENE,70,1.0,6.0,77,0.00,,---,0.01,0.00,VWS V14.01,2013-05-04 03:44:00,
2013-05-03 23:49:00,51.9,44.9,30.22,East,81,0.0,6.0,77,0.00,,---,0.01,0.00,VWS V14.01,2013-05-04 03:49:00,
2013-05-03 23:54:00,51.8,45.2,30.22,North,355,1.0,6.0,78,0.00,,---,0.01,0.00,VWS V14.01,2013-05-04 03:54:00,
2013-05-03 23:59:00,51.7,45.1,30.22,NE,50,0.0,6.0,78,0.00,,---,0.01,0.00,VWS V14.01,2013-05-04 03:59:00,